Find Starlink 32795

NORAD ID: 63042 Int'l Des: 2025-034 Owner: SPXS Country: US Constellation: starlink operational
LEOCIRCULAR

現在のビュー

3D地球を読み込み中...

About Starlink 32795

Starlink 32795 (NORAD 63042) is a starlink constellation satellite (v2 mini) launched Feb 18, 2025 by SPXS of US. It operates in LEO, CIRCULAR orbit with a mass of 730.00 kg.

次回通過

Passes for default location (London). Set your location on the main map for personalized predictions.

高度履歴

Loading altitude history...

軌道要素

1 63042U 25034P 26263.02652220 .00010773 00000-0 32951-3 0 9998
2 63042 53.1584 71.6882 0000871 83.1993 276.9108 15.34401283 88891
Epoch: Sep 20, 2026 • Age: 19 hours

現在のステータス

高度 471.2 km
遠地点 / 近地点 N/A
速度 7.63 km/s
衛星直下点 -27.65°S, 116.76°E
打ち上げ日 Feb 18, 2025
運用期間 1.5 years
タイプ internet

技術仕様

分類 Payload
質量 730.00 kg
乾燥質量 700.00 kg
長さ 0.30 m
スパン 29.00 m
形状 ? Box + pan
製造者 SPXS
バスタイプ Starlink V2M
フェーズステータス In Orbit
所有者/国 SPXS/US

Most Searched